• în România
  • Lista ţărilor
  • Pe 7 zile
  • Temperatura apei
  • Hartă satelitară
  • Meteo pe hartă
  • Widget-uri
  • user-avatar
    Intrare

    Meteo pe oră la Rijeka

    Astăzi, 24 Septembrie, Luni

    Timp Temperatura Precipitaţii Vânt Presiune Umiditate
    00:00 +23°C° 0.1 mm 5 m/s 749 mmHg 91%
    01:00 +23°C° 0 mm 5 m/s 748 mmHg 91%
    02:00 +23°C° 0.3 mm 5 m/s 749 mmHg 91%
    03:00 +22°C° 0.3 mm 4 m/s 749 mmHg 91%
    04:00 +22°C° 0.3 mm 4 m/s 749 mmHg 91%
    05:00 +21°C° 2.4 mm 4 m/s 750 mmHg 92%
    06:00 +20°C° 2.4 mm 3 m/s 751 mmHg 93%
    07:00 +20°C° 2.4 mm 3 m/s 752 mmHg 94%
    08:00 +16°C° 4.9 mm 5 m/s 754 mmHg 93%
    09:00 +13°C° 4.9 mm 8 m/s 755 mmHg 92%
    10:00 +11°C° 4.9 mm 10 m/s 757 mmHg 91%
    11:00 +11°C° 0.5 mm 10 m/s 757 mmHg 89%
    12:00 +11°C° 0.5 mm 9 m/s 758 mmHg 86%
    13:00 +11°C° 0.5 mm 9 m/s 759 mmHg 83%
    14:00 +11°C° 0 mm 8 m/s 759 mmHg 77%
    15:00 +12°C° 0 mm 8 m/s 759 mmHg 71%
    16:00 +14°C° 0 mm 7 m/s 760 mmHg 65%
    17:00 +12°C° 0 mm 7 m/s 760 mmHg 68%
    18:00 +11°C° 0 mm 7 m/s 761 mmHg 70%
    19:00 +10°C° 0 mm 6 m/s 761 mmHg 73%
    20:00 +10°C° 0 mm 6 m/s 762 mmHg 70%
    21:00 +10°C° 0 mm 6 m/s 762 mmHg 67%
    22:00 +9°C° 0 mm 6 m/s 763 mmHg 64%
    23:00 +9°C° 0 mm 6 m/s 763 mmHg 63%

    Mâine, 25 Septembrie, Marţi

    Timp Temperatura Precipitaţii Vânt Presiune Umiditate
    00:00 +9°C° 0 mm 6 m/s 764 mmHg 63%
    01:00 +9°C° 0 mm 6 m/s 764 mmHg 62%
    02:00 +9°C° 0 mm 6 m/s 764 mmHg 64%
    03:00 +8°C° 0 mm 5 m/s 764 mmHg 66%
    04:00 +8°C° 0 mm 5 m/s 764 mmHg 68%
    05:00 +8°C° 0 mm 5 m/s 764 mmHg 68%
    06:00 +8°C° 0 mm 5 m/s 765 mmHg 69%
    07:00 +9°C° 0 mm 5 m/s 765 mmHg 69%
    08:00 +10°C° 0 mm 6 m/s 765 mmHg 63%
    09:00 +11°C° 0 mm 6 m/s 765 mmHg 58%
    10:00 +14°C° 0 mm 6 m/s 766 mmHg 52%
    11:00 +15°C° 0 mm 6 m/s 765 mmHg 51%
    12:00 +15°C° 0 mm 6 m/s 765 mmHg 49%
    13:00 +16°C° 0 mm 6 m/s 765 mmHg 47%
    14:00 +16°C° 0 mm 6 m/s 765 mmHg 47%
    15:00 +15°C° 0 mm 6 m/s 765 mmHg 47%
    16:00 +15°C° 0 mm 6 m/s 764 mmHg 47%
    17:00 +13°C° 0 mm 5 m/s 765 mmHg 50%
    18:00 +12°C° 0 mm 5 m/s 766 mmHg 54%
    19:00 +9°C° 0 mm 5 m/s 766 mmHg 57%
    20:00 +9°C° 0 mm 5 m/s 767 mmHg 57%
    21:00 +8°C° 0 mm 5 m/s 767 mmHg 58%
    22:00 +8°C° 0 mm 5 m/s 768 mmHg 58%
    23:00 +8°C° 0 mm 5 m/s 768 mmHg 60%

    Poimâine, 26 Septembrie, Miercuri

    Timp Temperatura Precipitaţii Vânt Presiune Umiditate
    00:00 +7°C° 0 mm 5 m/s 768 mmHg 61%
    01:00 +7°C° 0 mm 5 m/s 768 mmHg 62%
    02:00 +7°C° 0 mm 5 m/s 768 mmHg 65%
    03:00 +6°C° 0 mm 4 m/s 768 mmHg 67%
    04:00 +6°C° 0 mm 4 m/s 768 mmHg 70%
    05:00 +6°C° 0 mm 4 m/s 768 mmHg 70%
    06:00 +6°C° 0 mm 4 m/s 768 mmHg 70%
    07:00 +8°C° 0 mm 3 m/s 768 mmHg 69%
    08:00 +10°C° 0 mm 3 m/s 768 mmHg 62%
    09:00 +12°C° 0 mm 3 m/s 768 mmHg 54%
    10:00 +14°C° 0 mm 3 m/s 768 mmHg 46%
    11:00 +16°C° 0 mm 3 m/s 768 mmHg 43%
    12:00 +18°C° 0 mm 3 m/s 768 mmHg 40%
    13:00 +19°C° 0 mm 2 m/s 767 mmHg 38%
    14:00 +19°C° 0 mm 2 m/s 767 mmHg 39%
    15:00 +18°C° 0 mm 2 m/s 766 mmHg 41%
    16:00 +19°C° 0 mm 1 m/s 766 mmHg 43%
    17:00 +16°C° 0 mm 1 m/s 766 mmHg 50%
    18:00 +14°C° 0 mm 1 m/s 766 mmHg 58%
    19:00 +11°C° 0 mm 1 m/s 766 mmHg 66%
    20:00 +11°C° 0 mm 1 m/s 766 mmHg 65%
    21:00 +11°C° 0 mm 1 m/s 766 mmHg 64%
    22:00 +11°C° 0 mm 1 m/s 766 mmHg 64%
    23:00 +11°C° 0 mm 1 m/s 766 mmHg 61%

    27 Septembrie, Joi

    Timp Temperatura Precipitaţii Vânt Presiune Umiditate
    00:00 +11°C° 0 mm 1 m/s 766 mmHg 59%
    01:00 +11°C° 0 mm 1 m/s 766 mmHg 56%
    02:00 +10°C° 0 mm 1 m/s 766 mmHg 55%
    03:00 +10°C° 0 mm 1 m/s 765 mmHg 54%
    04:00 +10°C° 0 mm 1 m/s 765 mmHg 52%
    05:00 +11°C° 0 mm 1 m/s 765 mmHg 52%
    06:00 +11°C° 0 mm 1 m/s 765 mmHg 52%
    07:00 +12°C° 0 mm 2 m/s 765 mmHg 52%
    08:00 +15°C° 0 mm 2 m/s 764 mmHg 46%
    09:00 +18°C° 0 mm 2 m/s 764 mmHg 40%
    10:00 +22°C° 0 mm 1 m/s 764 mmHg 35%
    11:00 +23°C° 0 mm 2 m/s 764 mmHg 33%
    12:00 +24°C° 0 mm 2 m/s 763 mmHg 31%
    13:00 +25°C° 0 mm 2 m/s 763 mmHg 29%
    14:00 +25°C° 0 mm 2 m/s 763 mmHg 33%
    15:00 +24°C° 0 mm 2 m/s 762 mmHg 38%
    16:00 +24°C° 0 mm 2 m/s 762 mmHg 42%
    17:00 +20°C° 0 mm 2 m/s 762 mmHg 47%
    18:00 +18°C° 0 mm 2 m/s 761 mmHg 51%
    19:00 +15°C° 0 mm 2 m/s 761 mmHg 56%
    20:00 +15°C° 0 mm 2 m/s 761 mmHg 54%
    21:00 +14°C° 0 mm 2 m/s 761 mmHg 52%
    22:00 +14°C° 0 mm 2 m/s 761 mmHg 49%
    23:00 +14°C° 0 mm 2 m/s 761 mmHg 49%

    28 Septembrie, Vineri

    Timp Temperatura Precipitaţii Vânt Presiune Umiditate
    00:00 +13°C° 0 mm 2 m/s 760 mmHg 49%
    01:00 +13°C° 0 mm 2 m/s 760 mmHg 49%
    02:00 +13°C° 0 mm 2 m/s 759 mmHg 50%
    03:00 +13°C° 0 mm 2 m/s 759 mmHg 51%
    04:00 +13°C° 0 mm 2 m/s 758 mmHg 52%
    05:00 +13°C° 0 mm 2 m/s 758 mmHg 54%
    06:00 +14°C° 0 mm 2 m/s 758 mmHg 55%
    07:00 +14°C° 0 mm 2 m/s 757 mmHg 57%
    08:00 +17°C° 0 mm 2 m/s 757 mmHg 51%
    09:00 +19°C° 0 mm 2 m/s 757 mmHg 45%
    10:00 +23°C° 0 mm 2 m/s 756 mmHg 40%
    11:00 +24°C° 0 mm 2 m/s 756 mmHg 38%
    12:00 +25°C° 0 mm 2 m/s 755 mmHg 37%
    13:00 +26°C° 0 mm 2 m/s 755 mmHg 35%
    14:00 +26°C° 0 mm 2 m/s 754 mmHg 39%
    15:00 +25°C° 0 mm 1 m/s 754 mmHg 43%
    16:00 +25°C° 0 mm 1 m/s 753 mmHg 46%
    17:00 +22°C° 0 mm 1 m/s 754 mmHg 53%
    18:00 +20°C° 0 mm 1 m/s 754 mmHg 59%
    19:00 +16°C° 0 mm 1 m/s 754 mmHg 65%
    20:00 +16°C° 0 mm 1 m/s 754 mmHg 64%
    21:00 +16°C° 0 mm 1 m/s 754 mmHg 63%
    22:00 +15°C° 0 mm 2 m/s 754 mmHg 61%
    23:00 +15°C° 0 mm 2 m/s 754 mmHg 61%

    29 Septembrie, Sâmbătă

    Timp Temperatura Precipitaţii Vânt Presiune Umiditate
    00:00 +15°C° 0 mm 2 m/s 754 mmHg 61%
    01:00 +15°C° 0 mm 2 m/s 754 mmHg 61%
    02:00 +14°C° 0 mm 2 m/s 754 mmHg 62%
    03:00 +14°C° 0 mm 2 m/s 754 mmHg 63%
    04:00 +13°C° 0 mm 3 m/s 754 mmHg 64%
    05:00 +14°C° 0 mm 3 m/s 754 mmHg 64%
    06:00 +14°C° 0 mm 4 m/s 754 mmHg 64%
    07:00 +14°C° 0 mm 4 m/s 754 mmHg 65%
    08:00 +16°C° 0 mm 5 m/s 755 mmHg 62%
    09:00 +17°C° 0 mm 5 m/s 755 mmHg 60%
    10:00 +20°C° 0 mm 6 m/s 755 mmHg 58%
    11:00 +20°C° 0 mm 6 m/s 755 mmHg 57%
    12:00 +21°C° 0 mm 6 m/s 755 mmHg 56%
    13:00 +22°C° 0 mm 6 m/s 755 mmHg 55%
    14:00 +21°C° 0 mm 6 m/s 755 mmHg 54%
    15:00 +20°C° 0 mm 6 m/s 755 mmHg 54%
    16:00 +20°C° 0 mm 6 m/s 755 mmHg 54%
    17:00 +17°C° 0 mm 6 m/s 756 mmHg 52%
    18:00 +15°C° 0 mm 7 m/s 757 mmHg 50%
    19:00 +12°C° 0 mm 7 m/s 757 mmHg 48%
    20:00 +12°C° 0 mm 7 m/s 758 mmHg 52%
    21:00 +11°C° 0 mm 7 m/s 758 mmHg 57%
    22:00 +11°C° 0 mm 7 m/s 759 mmHg 61%
    23:00 +11°C° 0 mm 7 m/s 759 mmHg 64%
    Arată mai mult